Date,TemperatureHighF,TemperatureAvgF,TemperatureLowF,DewpointHighF,DewpointAvgF,DewpointLowF,HumidityHigh,HumidityAvg,HumidityLow,PressureMaxIn,PressureMinIn,WindSpeedMaxMPH,WindSpeedAvgMPH,GustSpeedMaxMPH,PrecipitationSumIn
2013-2-1,28,17,4,24,16,4,100,95,85,29.91,29.62,12,3,12,0.00
2013-2-2,49,36,24,42,32,22,97,87,73,29.68,29.53,10,3,10,0.00
2013-2-3,50,38,32,42,34,28,97,87,73,29.77,29.35,14,5,14,0.00
2013-2-4,51,39,22,43,35,22,100,85,73,29.53,29.29,13,4,13,0.00
2013-2-5,60,39,21,46,35,21,100,85,61,29.65,29.44,15,3,15,0.00
2013-2-6,62,46,31,48,39,28,97,78,61,29.68,29.47,17,6,17,0.00
2013-2-7,50,45,44,46,43,38,100,94,73,29.50,29.44,12,5,12,0.00
2013-2-11,52,38,27,43,33,24,100,83,73,29.80,29.56,11,3,11,0.00
2013-2-12,42,37,25,38,34,25,100,87,79,29.80,29.62,6,0,6,0.00
2013-2-13,57,41,27,46,36,26,100,84,61,29.62,29.47,13,4,13,0.00
2013-2-14,38,36,34,36,33,28,97,90,79,29.53,29.50,6,3,6,0.00
2013-2-16,33,32,32,29,28,28,85,85,85,29.80,29.77,8,5,8,0.00
2013-2-17,33,33,33,29,29,29,85,85,85,29.77,29.77,9,5,9,0.00
2013-2-19,37,27,20,35,24,19,97,90,79,30.00,29.77,19,5,19,0.00
2013-2-20,24,23,22,22,22,21,97,94,91,29.91,29.88,11,6,11,0.00
2013-2-21,29,25,21,29,24,21,100,97,91,29.91,29.44,17,5,17,0.00
2013-2-22,35,24,14,30,23,14,100,94,79,29.80,29.47,13,2,13,0.00
2013-2-23,33,19,9,28,18,9,100,95,85,29.77,29.65,8,1,8,0.00
2013-2-24,56,40,31,45,35,27,91,82,67,29.74,29.65,10,4,10,0.00
2013-2-25,38,34,27,36,31,24,100,90,79,29.68,29.32,20,6,20,0.00
2013-2-26,34,33,32,34,33,32,100,100,97,29.53,29.18,15,2,15,0.00
2013-2-27,36,32,27,35,31,26,100,96,79,29.71,29.50,17,2,17,0.00
2013-2-28,37,32,27,35,28,23,100,87,79,29.85,29.71,16,5,16,0.00